Weather History for Skagway, AK

Change the Weather History Date:

Tuesday, October 26, 2010

  Actual Average Record
Temperature  
Mean Temperature 40 °F -  
Max Temperature 43 °F 42 °F 52 °F (2013)
Min Temperature 37 °F 33 °F 21 °F (1971)
Degree Days  
Heating Degree Days 26    
Moisture  
Dew Point 36 °F    
Average Humidity 86    
Maximum Humidity 100    
Minimum Humidity 76    
Precipitation  
Precipitation 0.06 in - - ()
Sea Level Pressure  
Sea Level Pressure 29.81 in    
Wind  
Wind Speed 1 mph (NE)    
Max Wind Speed 4 mph    
Max Gust Speed -    
Visibility 10 miles    
Events Rain    
Averages and records for this station are not official NWS values.
T = Trace of Precipitation, MM = Missing Value Source: NWS Daily Summary

Daily Weather History Graph

Daily Weather History Graph

Search for Another Location

Airport:

Trip Planner

Search our weather history database for the weather conditions in past years. The results will help you decide how hot, cold, wet, or windy it might be!

Date:

Astronomy

Oct. 26, 2010 Rise Set
Actual Time 8:06 AM AKDT 5:22 PM AKDT
Civil Twilight 7:23 AM AKDT 6:05 PM AKDT
Nautical Twilight 6:35 AM AKDT 6:53 PM AKDT
Astronomical Twilight 5:48 AM AKDT 7:40 PM AKDT
Moon 6:41 PM AKDT (10/26) 1:06 PM AKDT (10/26)
Length of Visible Light 10h 42m
Length of Day
9h 15m
Waning Gibbous, 86% of the Moon is Illuminated
Oct 26
Waning Gibbous
Oct 30
Last Quarter
Nov 5
New
Nov 13
First Quarter
Nov 21
Full

Hourly Weather History & Observations

Time (AKDT) Temp. Windchill Dew Point Humidity Pressure Visibility Wind Dir Wind Speed Gust Speed Precip Events Conditions
12:53 AM 37.9 °F - 32.0 °F 79% 29.58 in 10.0 mi Calm Calm - N/A   Overcast
1:53 AM 37.0 °F 34.5 °F 33.1 °F 86% 29.60 in 10.0 mi NE 3.5 mph - N/A   Overcast
2:53 AM 37.9 °F 35.5 °F 32.0 °F 79% 29.62 in 10.0 mi NE 3.5 mph - N/A   Overcast
3:53 AM 37.0 °F - 32.0 °F 82% 29.63 in 10.0 mi Calm Calm - N/A   Overcast
4:53 AM 37.0 °F - 33.1 °F 86% 29.65 in 10.0 mi Calm Calm - N/A   Scattered Clouds
5:53 AM 37.0 °F 34.5 °F 33.1 °F 86% 29.66 in 10.0 mi NNE 3.5 mph - N/A   Overcast
6:53 AM 37.9 °F - 33.1 °F 83% 29.68 in 10.0 mi Calm Calm - N/A   Overcast
7:53 AM 37.9 °F - 33.1 °F 83% 29.70 in 10.0 mi Calm Calm - N/A   Overcast
8:53 AM 37.9 °F - 33.1 °F 83% 29.72 in 10.0 mi Calm Calm - N/A   Overcast
9:53 AM 39.0 °F - 34.0 °F 82% 29.74 in 10.0 mi Calm Calm - N/A   Overcast
10:53 AM 39.9 °F - 35.1 °F 83% 29.76 in 10.0 mi Calm Calm - N/A   Overcast
11:53 AM 41.0 °F - 35.1 °F 79% 29.78 in 10.0 mi Calm Calm - N/A   Overcast
12:53 PM 41.0 °F - 34.0 °F 76% 29.80 in 10.0 mi Calm Calm - N/A   Overcast
1:53 PM 39.9 °F - 35.1 °F 83% 29.81 in 10.0 mi Calm Calm - N/A   Overcast
2:53 PM 41.0 °F - 34.0 °F 76% 29.82 in 10.0 mi Calm Calm - 0.00 in   Overcast
3:30 PM 42.8 °F - 35.6 °F 76% 29.83 in 10.0 mi Calm Calm - N/A   Overcast
3:53 PM 42.1 °F - 36.0 °F 79% 29.84 in 10.0 mi Calm Calm - N/A   Overcast
4:36 PM 42.8 °F - 37.4 °F 81% 29.85 in 10.0 mi Calm Calm - 0.00 in   Overcast
4:53 PM 42.1 °F - 37.0 °F 82% 29.86 in 10.0 mi Calm Calm - 0.00 in   Overcast
5:11 PM 42.8 °F - 37.4 °F 81% 29.86 in 10.0 mi Calm Calm - N/A   Overcast
5:53 PM 41.0 °F - 37.0 °F 86% 29.88 in 10.0 mi Calm Calm - N/A   Overcast
6:00 PM 42.8 °F - 37.4 °F 81% 29.88 in 10.0 mi Calm Calm - N/A   Overcast
6:53 PM 41.0 °F - 37.9 °F 89% 29.89 in 9.0 mi Calm Calm - 0.00 in Rain Light Rain
7:53 PM 41.0 °F - 39.0 °F 93% 29.91 in 9.0 mi Calm Calm - 0.01 in Rain Light Rain
8:01 PM 41.0 °F - 39.2 °F 93% 29.91 in 7.0 mi Calm Calm - N/A Rain Light Rain
8:53 PM 41.0 °F - 39.9 °F 96% 29.93 in 6.0 mi Calm Calm - 0.03 in Rain Light Rain
9:04 PM 41.0 °F - 39.2 °F 93% 29.93 in 6.0 mi Calm Calm - 0.01 in Rain Light Rain
9:53 PM 39.9 °F - 39.0 °F 97% 29.95 in 10.0 mi Calm Calm - 0.02 in Rain Light Rain
10:12 PM 39.2 °F - 39.2 °F 100% 29.95 in 10.0 mi Calm Calm - 0.00 in   Overcast
10:34 PM 39.2 °F - 39.2 °F 100% 29.96 in 9.0 mi Calm Calm - 0.00 in Rain Light Rain
10:53 PM 39.9 °F - 39.0 °F 97% 29.97 in 10.0 mi Calm Calm - 0.00 in Rain Light Rain
11:53 PM 39.9 °F - 39.0 °F 97% 29.99 in 10.0 mi Calm Calm - 0.00 in   Overcast